EW1675 Weather Reports


time (UTC)temp
F
wind
direction
speed
knots
gust
knots
rain 1hr
in
rain 24hr
in
rain mn
in
humidity
%
barometer
mb
20260503011023 54 15 0.9 3.5 0.00 0.00 0.00 49 1013.7
20260503010023 54 356 0.9 4.3 0.00 0.00 0.00 49 1013.6
20260503005024 54 7 0.9 4.3 0.00 0.00 0.00 48 1013.3
20260503004022 54 359 0.9 4.3 0.00 0.00 0.00 48 1013.2
20260503003044 54 346 0.9 4.3 0.00 0.00 0.00 49 1013.0
20260503002044 54 350 0.9 3.5 0.00 0.00 0.00 47 1012.9
20260503001002 55 359 0.9 2.6 0.00 0.00 0.00 47 1012.5
20260503000002 55 357 0.9 3.5 0.00 0.00 0.00 46 1012.5
20260502235002 56 343 0.9 3.5 0.00 0.00 0.00 46 1012.5
20260502234002 56 358 0.9 5.2 0.00 0.00 0.00 47 1012.3
20260502233002 56 359 0.9 4.3 0.00 0.00 0.00 45 1012.3
20260502232023 56 329 0.9 4.3 0.00 0.00 0.00 46 1012.2
20260502231002 56 347 0.9 5.2 0.00 0.00 0.00 46 1012.1
20260502230002 56 337 0.9 3.5 0.00 0.00 0.00 46 1012.2
20260502225002 56 358 0.9 4.3 0.00 0.00 0.00 47 1012.1
20260502224023 56 5 1.7 7.8 0.00 0.00 0.00 44 1012.2
20260502223044 57 2 1.7 7.0 0.00 0.00 0.00 45 1012.1
20260502222105 57 322 0.9 4.3 0.00 0.00 0.00 44 1012.1
20260502221002 58 323 0.9 3.5 0.00 0.00 0.00 45 1012.1
20260502220002 58 19 1.7 7.0 0.00 0.00 0.00 43 1012.2
20260502215002 58 345 1.7 4.3 0.00 0.00 0.00 44 1012.2
20260502214105 58 19 1.7 7.0 0.00 0.00 0.00 43 1012.1
20260502213002 58 348 1.7 7.0 0.00 0.00 0.00 42 1012.0
20260502212002 58 346 1.7 7.8 0.00 0.00 0.00 44 1012.0
20260502211023 58 13 1.7 8.7 0.00 0.00 0.00 43 1012.0
20260502210002 59 2 1.7 5.2 0.00 0.00 0.00 42 1012.1
20260502205002 59 350 1.7 6.1 0.00 0.00 0.00 41 1012.2
20260502204023 60 340 1.7 7.8 0.00 0.00 0.00 43 1012.0
20260502203003 60 3 1.7 7.0 0.00 0.00 0.00 44 1011.9
20260502202003 59 48 0.9 7.8 0.00 0.00 0.00 42 1011.9
20260502201002 60 350 0.9 5.2 0.00 0.00 0.00 42 1012.1
20260502200002 60 358 0.9 4.3 0.00 0.00 0.00 43 1012.1
20260502195002 60 14 1.7 6.1 0.00 0.00 0.00 41 1012.3
20260502194024 61 357 2.6 8.7 0.00 0.00 0.00 38 1012.3
20260502193044 62 334 0.9 3.5 0.00 0.00 0.00 45 1012.5
20260502192002 61 349 1.7 7.8 0.00 0.00 0.00 41 1012.4
20260502191023 62 328 0.9 7.0 0.00 0.00 0.00 43 1012.7
20260502190002 60 16 1.7 4.3 0.00 0.00 0.00 42 1013.0
20260502185002 60 29 0.9 3.5 0.00 0.00 0.00 43 1013.2
20260502184002 60 64 0.9 3.5 0.00 0.00 0.00 45 1013.4
20260502183023 60 20 0.9 5.2 0.00 0.00 0.00 41 1013.4
20260502182002 60 37 0.9 5.2 0.00 0.00 0.00 45 1013.5
20260502181003 59 313 0.9 6.1 0.00 0.00 0.00 48 1013.7
20260502164002 56 352 1.7 5.2 0.00 0.00 0.00 49 1014.5
20260502163045 55 354 0.9 4.3 0.00 0.00 0.00 50 1014.8
20260502162044 55 326 1.7 4.3 0.00 0.00 0.00 51 1014.8
20260502161024 54 350 0.9 4.3 0.00 0.00 0.00 55 1014.8
20260502152106 53 360 0.9 5.2 0.00 0.00 0.00 58 1015.0
20260502151045 53 353 1.7 7.8 0.00 0.00 0.00 56 1015.1
20260502123045 48 340 1.7 7.8 0.00 0.00 0.00 66 1014.8
20260502122003 48 343 2.6 9.6 0.00 0.00 0.00 66 1014.9
20260502121003 48 10 2.6 9.6 0.00 0.00 0.00 66 1014.9
20260502115003 47 353 1.7 6.1 0.00 0.00 0.00 67 1014.9
20260502114003 47 335 2.6 9.6 0.00 0.00 0.00 66 1014.9
20260502113106 47 356 2.6 9.6 0.00 0.00 0.00 66 1014.9
20260502112003 48 349 1.7 7.0 0.00 0.00 0.00 68 1014.9
20260502111045 48 357 1.7 6.1 0.00 0.00 0.00 69 1014.8
20260502110003 48 15 1.7 9.6 0.00 0.00 0.00 69 1014.7
20260502105024 48 10 1.7 7.8 0.00 0.00 0.00 69 1014.5
20260502104045 48 355 1.7 7.8 0.00 0.00 0.00 69 1014.5
20260502103045 48 344 0.9 6.1 0.00 0.00 0.00 70 1014.3
20260502102003 48 4 0.9 5.2 0.00 0.00 0.00 69 1014.1
20260502101043 49 359 1.7 4.3 0.00 0.00 0.00 69 1014.1
20260502091022 51 3 1.7 7.8 0.00 0.00 0.00 65 1013.4
20260502071002 54 348 0.9 5.2 0.00 0.00 0.00 67 1013.0
20260502070022 54 4 0.9 5.2 0.00 0.00 0.00 67 1013.0
20260502065001 54 1 0.9 4.3 0.00 0.00 0.00 67 1012.8
20260502064022 54 341 0.9 3.5 0.00 0.00 0.00 66 1012.8
20260502063001 54 335 0.9 3.5 0.00 0.00 0.00 66 1012.8
20260502062002 55 9 0.9 7.0 0.00 0.00 0.00 65 1012.9
20260502061002 55 348 0.9 4.3 0.00 0.00 0.00 64 1012.9
20260502060001 56 359 0.9 6.1 0.00 0.00 0.00 63 1013.1
20260502055001 56 2 0.9 4.3 0.00 0.00 0.00 63 1013.2
20260502054001 56 357 1.7 4.3 0.00 0.00 0.00 62 1013.2
20260502053043 56 12 1.7 8.7 0.00 0.00 0.00 62 1013.3
20260502052104 57 354 1.7 4.3 0.00 0.00 0.00 62 1013.1
20260502051001 57 344 0.9 5.2 0.00 0.00 0.00 62 1013.4
20260502050001 57 345 1.7 7.8 0.00 0.00 0.00 62 1013.3
20260502045001 57 27 0.0 2.6 0.00 0.00 0.00 63 1013.4
20260502044001 57 28 0.0 2.6 0.00 0.00 0.00 63 1013.3
20260502043043 57 23 0.0 2.6 0.00 0.00 0.00 63 1013.3
20260502042001 58 8 0.9 5.2 0.00 0.00 0.00 63 1013.4
20260502041023 58 346 0.9 4.3 0.00 0.00 0.00 64 1013.2
20260502040002 58 339 0.9 7.0 0.00 0.00 0.00 65 1013.0
20260502035001 57 358 0.9 5.2 0.00 0.00 0.00 66 1012.7
20260502034001 57 4 0.9 5.2 0.00 0.00 0.00 67 1012.4
20260502033023 57 35 0.0 7.0 0.00 0.00 0.00 68 1012.3
20260502032023 57 90 0.0 1.7 0.00 0.00 0.00 72 1012.4
20260502031022 57 0 0.0 0.0 0.00 0.00 0.00 71 1011.9
20260502030022 57 0 0.0 0.0 0.00 0.00 0.00 71 1011.7
20260502025001 58 90 0.0 2.6 0.00 0.00 0.00 70 1011.5
20260502024023 58 90 0.0 0.9 0.00 0.00 0.00 69 1011.5
20260502023001 58 0 0.0 0.0 0.00 0.00 0.00 67 1011.4
20260502022001 59 90 0.0 2.6 0.00 0.00 0.00 65 1011.4
20260502021002 59 91 0.0 2.6 0.00 0.00 0.00 65 1011.5
20260502020022 59 91 0.0 1.7 0.00 0.00 0.00 65 1011.6
20260502015002 60 91 0.0 0.9 0.00 0.00 0.00 62 1011.5
20260502014002 60 91 0.0 0.9 0.00 0.00 0.00 58 1011.7
20260502013002 60 91 0.0 0.9 0.00 0.00 0.00 57 1011.2
20260502012044 60 91 0.0 0.9 0.00 0.00 0.00 56 1011.0